K3CHZ Weather Reports


Display with metric or nautical units.
time (UTC)temp
F
wind
direction
speed
MPH
gust
MPH
rain 1hr
in
rain 24hr
in
rain mn
in
humidity
%
barometer
mb
20260903202639 83 323 0.0 0.0 0.00 0.04 0.04 82 1014.5
20260903202137 83 323 0.0 0.0 0.00 0.04 0.04 80 1014.5
20260903201637 83 323 0.0 0.0 0.00 0.04 0.04 80 1014.6
20260903201137 83 323 0.0 0.0 0.00 0.04 0.04 81 1014.6
20260903200637 83 323 0.0 0.0 0.00 0.04 0.04 81 1014.8
20260903200137 83 323 0.0 1.0 0.00 0.04 0.04 82 1014.7
20260903195637 83 323 0.0 1.0 0.00 0.04 0.04 81 1014.7
20260903195137 83 323 0.0 1.0 0.00 0.04 0.04 81 1014.8
20260903194637 83 323 0.0 1.0 0.00 0.04 0.04 81 1014.9
20260903194137 82 296 0.0 1.0 0.00 0.04 0.04 82 1015.1
20260903193637 82 296 0.0 1.0 0.00 0.04 0.04 82 1015.0
20260903193137 81 296 0.0 0.0 0.00 0.04 0.04 83 1015.2
20260903192638 80 296 0.0 0.0 0.00 0.04 0.04 85 1015.2
20260903192141 80 296 0.0 0.0 0.00 0.04 0.04 86 1015.4
20260903191640 79 296 0.0 0.0 0.00 0.04 0.04 87 1015.4
20260903191140 79 296 0.0 0.0 0.00 0.04 0.04 86 1015.6
20260903190641 79 296 0.0 0.0 0.00 0.04 0.04 86 1015.9
20260903190140 79 296 0.0 0.0 0.00 0.04 0.04 85 1015.9
20260903185641 79 296 0.0 0.0 0.00 0.04 0.04 85 1015.8
20260903185140 79 296 0.0 0.0 0.00 0.04 0.04 86 1015.8
20260903184640 79 296 0.0 0.0 0.00 0.04 0.04 85 1015.9
20260903184140 79 296 0.0 1.0 0.00 0.04 0.04 83 1015.9
20260903183640 79 296 0.0 1.0 0.00 0.04 0.04 86 1015.8
20260903183139 79 206 0.0 0.0 0.00 0.04 0.04 87 1015.7
20260903182641 79 206 0.0 0.0 0.00 0.04 0.04 87 1015.8
20260903182140 78 206 0.0 0.0 0.00 0.04 0.04 89 1015.8
20260903181640 78 205 0.0 0.0 0.00 0.04 0.04 88 1015.9
20260903181139 78 205 0.0 0.0 0.00 0.04 0.04 89 1016.1
20260903180640 77 205 0.0 0.0 0.00 0.04 0.04 89 1016.0
20260903180140 77 205 0.0 0.0 0.00 0.04 0.04 89 1016.1
20260903175640 77 205 0.0 0.0 0.00 0.04 0.04 89 1016.0
20260903175140 77 205 0.0 0.0 0.00 0.04 0.04 89 1016.1
20260903174643 77 205 0.0 0.0 0.00 0.04 0.04 91 1016.2
20260903174141 76 206 0.0 0.0 0.00 0.04 0.04 92 1016.4
20260903173644 76 206 0.0 1.0 0.00 0.04 0.04 91 1016.4
20260903173140 76 206 0.0 1.0 0.00 0.04 0.04 91 1016.4
20260903172637 75 207 0.0 1.0 0.00 0.04 0.04 93 1016.6
20260903172137 75 60 0.0 0.0 0.00 0.04 0.04 93 1016.6
20260903171638 75 60 0.0 0.0 0.01 0.04 0.04 94 1016.7
20260903171138 75 60 0.0 0.0 0.02 0.04 0.04 94 1016.9
20260903170636 75 60 0.0 0.0 0.02 0.04 0.04 94 1016.9
20260903170137 74 60 0.0 1.0 0.02 0.04 0.04 94 1017.1
20260903165636 74 60 0.0 1.0 0.02 0.04 0.04 94 1017.2
20260903165137 74 227 0.0 0.0 0.03 0.04 0.04 94 1017.1
20260903164637 74 227 0.0 0.0 0.03 0.04 0.04 94 1017.0
20260903164137 74 227 0.0 0.0 0.03 0.04 0.04 94 1017.1
20260903163637 74 227 0.0 0.0 0.03 0.04 0.04 94 1016.9
20260903163137 74 227 0.0 0.0 0.03 0.04 0.04 94 1016.9
20260903162638 74 308 0.0 0.0 0.04 0.04 0.04 94 1017.3
20260903162141 74 309 0.0 0.0 0.04 0.04 0.04 94 1017.5
20260903161640 74 309 0.0 0.0 0.03 0.03 0.03 94 1017.4
20260903161141 74 309 0.0 0.0 0.02 0.02 0.02 94 1017.3
20260903160641 74 309 0.0 0.0 0.02 0.02 0.02 93 1017.5
20260903160140 74 309 0.0 0.0 0.02 0.02 0.02 94 1018.0
20260903155640 74 309 0.0 0.0 0.02 0.02 0.02 93 1018.2
20260903155140 74 309 0.0 0.0 0.01 0.01 0.01 93 1018.2
20260903154640 74 309 0.0 0.0 0.01 0.01 0.01 93 1018.2
20260903154140 74 309 0.0 0.0 0.01 0.01 0.01 93 1018.8
20260903153640 74 309 0.0 3.0 0.01 0.01 0.01 93 1019.1
20260903153139 75 309 0.0 3.0 0.01 0.01 0.01 93 1019.3
20260903152648 80 309 0.0 1.0 0.00 0.00 0.00 62 1019.6